Lebanon, Oregon, United States (97355)
Lat: 44.54N, Lon: 122.91W
Wx Zone: ORZ008
Local Info
Past Weather Observations for Today

NOTE: This archive is for the closest National Weather Service station to Lebanon. Information may differ from the station used for current weather conditions.

Click here for Long-term Archive

Time Weather Temperature Dewpoint Humidity Pressure Winds Precip Visibility
21:35
Overcast
43°F / 6°C 39°F / 4°C 87% 30.45 in
(1031 mb)
S 4.6 mph
(S 7 kph)
- 3/4SM
21:15
Clear
45°F / 7°C 41°F / 5°C 87% 30.45 in
(1031 mb)
Calm - 1SM
20:55
Clear
45°F / 7°C 41°F / 5°C 87% 30.45 in
(1031 mb)
Calm - 3SM
20:35
Clear
45°F / 7°C 43°F / 6°C 93% 30.45 in
(1031 mb)
Calm - 6SM
20:15
Clear
45°F / 7°C 43°F / 6°C 93% 30.45 in
(1031 mb)
Calm - 5SM
19:55
Clear
45°F / 7°C 43°F / 6°C 93% 30.45 in
(1031 mb)
S 3.5 mph
(S 6 kph)
- 10SM
19:35
Clear
45°F / 7°C 43°F / 6°C 93% 30.45 in
(1031 mb)
Calm - 9SM
19:15
Clear
46°F / 8°C 43°F / 6°C 87% 30.45 in
(1031 mb)
Calm - 10SM
18:55
Clear
46°F / 8°C 43°F / 6°C 87% 30.45 in
(1031 mb)
SSW 3.5 mph
(SSW 6 kph)
- 10SM
18:35
Clear
46°F / 8°C 45°F / 7°C 93% 30.45 in
(1031 mb)
SW 3.5 mph
(SW 6 kph)
- 7SM
18:15
Clear
48°F / 9°C 45°F / 7°C 87% 30.45 in
(1031 mb)
S 4.6 mph
(S 7 kph)
- 10SM
17:55
Clear
48°F / 9°C 46°F / 8°C 94% 30.45 in
(1031 mb)
Calm - 10SM
17:35
Clear
50°F / 10°C 46°F / 8°C 88% 30.45 in
(1031 mb)
Calm - 10SM
17:15
Clear
52°F / 11°C 46°F / 8°C 82% 30.45 in
(1031 mb)
Calm - 10SM
16:55
Clear
54°F / 12°C 46°F / 8°C 77% 30.45 in
(1031 mb)
Calm - 10SM
16:35
Clear
54°F / 12°C 46°F / 8°C 77% 30.45 in
(1031 mb)
Calm - 10SM
16:15
Partly Cloudy
52°F / 11°C 46°F / 8°C 82% 30.45 in
(1031 mb)
Calm - 10SM
15:55
Overcast
50°F / 10°C 46°F / 8°C 88% 30.45 in
(1031 mb)
SW 3.5 mph
(SW 6 kph)
- 10SM
15:35
Overcast
52°F / 11°C 46°F / 8°C 82% 30.45 in
(1031 mb)
Calm - 10SM
15:15
Overcast
48°F / 9°C 45°F / 7°C 87% 30.48 in
(1032 mb)
Calm - 10SM
14:55
Overcast
50°F / 10°C 45°F / 7°C 82% 30.48 in
(1032 mb)
W 3.5 mph
(W 6 kph)
- 10SM
14:35
Overcast
48°F / 9°C 45°F / 7°C 87% 30.48 in
(1032 mb)
Calm - 10SM
14:15
Overcast
48°F / 9°C 45°F / 7°C 87% 30.48 in
(1032 mb)
Calm - 10SM
13:55
Overcast
48°F / 9°C 45°F / 7°C 87% 30.48 in
(1032 mb)
Calm - 10SM
13:35
Overcast
48°F / 9°C 45°F / 7°C 87% 30.51 in
(1033 mb)
Calm - 10SM
13:15
Overcast
48°F / 9°C 45°F / 7°C 87% 30.51 in
(1033 mb)
N 4.6 mph
(N 7 kph)
- 10SM
12:55
Overcast
48°F / 9°C 45°F / 7°C 87% 30.51 in
(1033 mb)
Calm - 10SM
12:35
Overcast
48°F / 9°C 45°F / 7°C 87% 30.51 in
(1033 mb)
NE 3.5 mph
(NE 6 kph)
- 10SM
12:15
Overcast
48°F / 9°C 45°F / 7°C 87% 30.51 in
(1033 mb)
NE 4.6 mph
(NE 7 kph)
- 10SM
11:55
Overcast
46°F / 8°C 45°F / 7°C 93% 30.54 in
(1034 mb)
Calm - 10SM
11:35
Overcast
46°F / 8°C 43°F / 6°C 87% 30.54 in
(1034 mb)
N 3.5 mph
(N 6 kph)
- 10SM
11:15
Overcast
46°F / 8°C 45°F / 7°C 93% 30.54 in
(1034 mb)
ENE 5.8 mph
(ENE 9 kph)
- 10SM
10:55
Overcast
46°F / 8°C 45°F / 7°C 93% 30.54 in
(1034 mb)
ENE 6.9 mph
(ENE 11 kph)
- 9SM
10:35
Overcast
46°F / 8°C 45°F / 7°C 93% 30.54 in
(1034 mb)
ENE 3.5 mph
(ENE 6 kph)
- 9SM
10:15
Overcast
46°F / 8°C 43°F / 6°C 87% 30.54 in
(1034 mb)
Calm - 10SM
09:55
Overcast
46°F / 8°C 43°F / 6°C 87% 30.54 in
(1034 mb)
Calm - 10SM
09:35
Overcast
46°F / 8°C 43°F / 6°C 87% 30.54 in
(1034 mb)
ENE 4.6 mph
(ENE 7 kph)
- 9SM
09:15
Overcast
46°F / 8°C 43°F / 6°C 87% 30.54 in
(1034 mb)
ENE 3.5 mph
(ENE 6 kph)
- 10SM
08:55
Overcast
46°F / 8°C 43°F / 6°C 87% 30.51 in
(1033 mb)
Calm - 9SM
08:35
Overcast
46°F / 8°C 43°F / 6°C 87% 30.54 in
(1034 mb)
Calm - 10SM
08:15
Overcast
46°F / 8°C 43°F / 6°C 87% 30.54 in
(1034 mb)
Calm - 10SM
07:55
Overcast
46°F / 8°C 43°F / 6°C 87% 30.51 in
(1033 mb)
Calm - 10SM
07:35
Overcast
45°F / 7°C 43°F / 6°C 93% 30.51 in
(1033 mb)
Calm - 10SM
07:15
Overcast
45°F / 7°C 43°F / 6°C 93% 30.51 in
(1033 mb)
Calm - 10SM
06:55
Overcast
45°F / 7°C 43°F / 6°C 93% 30.51 in
(1033 mb)
Calm - 10SM
06:35
Overcast
45°F / 7°C 43°F / 6°C 93% 30.51 in
(1033 mb)
Calm - 10SM
06:15
Overcast
45°F / 7°C 43°F / 6°C 93% 30.51 in
(1033 mb)
Calm - 10SM
05:55
Overcast
45°F / 7°C 43°F / 6°C 93% 30.51 in
(1033 mb)
Calm - 10SM
05:35
Overcast
46°F / 8°C 43°F / 6°C 87% 30.51 in
(1033 mb)
ENE 4.6 mph
(ENE 7 kph)
- 10SM
05:15
Overcast
46°F / 8°C 43°F / 6°C 87% 30.51 in
(1033 mb)
Calm - 10SM
04:55
Overcast
46°F / 8°C 43°F / 6°C 87% 30.51 in
(1033 mb)
E 4.6 mph
(E 7 kph)
- 10SM
04:35
Overcast
46°F / 8°C 43°F / 6°C 87% 30.51 in
(1033 mb)
Calm - 10SM
04:15
Overcast
46°F / 8°C 43°F / 6°C 87% 30.48 in
(1032 mb)
Calm - 9SM
03:55
Mostly Cloudy
46°F / 8°C 43°F / 6°C 87% 30.48 in
(1032 mb)
NE 3.5 mph
(NE 6 kph)
- 10SM
03:35
Overcast
46°F / 8°C 45°F / 7°C 93% 30.51 in
(1033 mb)
Calm - 10SM
03:15
Overcast
46°F / 8°C 45°F / 7°C 93% 30.51 in
(1033 mb)
Calm - 10SM
02:55
Overcast
46°F / 8°C 45°F / 7°C 93% 30.51 in
(1033 mb)
Calm - 8SM
02:35
Overcast
46°F / 8°C 45°F / 7°C 93% 30.48 in
(1032 mb)
Calm - 8SM
02:15
Overcast
46°F / 8°C 45°F / 7°C 93% 30.48 in
(1032 mb)
Calm - 10SM
01:55
Overcast
46°F / 8°C 45°F / 7°C 93% 30.48 in
(1032 mb)
Calm - 9SM
01:35
Overcast
46°F / 8°C 45°F / 7°C 93% 30.48 in
(1032 mb)
Calm - 5SM
01:15
Overcast
46°F / 8°C 45°F / 7°C 93% 30.48 in
(1032 mb)
Calm - 5SM
00:55
Overcast
46°F / 8°C 45°F / 7°C 93% 30.48 in
(1032 mb)
SSW 3.5 mph
(SSW 6 kph)
- 10SM
00:35
Overcast
46°F / 8°C 45°F / 7°C 93% 30.48 in
(1032 mb)
Calm - 9SM
00:15
Overcast
46°F / 8°C 45°F / 7°C 93% 30.48 in
(1032 mb)
W 3.5 mph
(W 6 kph)
- 10SM
Time Weather Temperature Dewpoint Humidity Pressure Winds Precip Visibility


Weather for websites

WeatherForYou.com, LLC is not responsible for any damages or problems caused by this service. Current weather conditions are obtained from the closest station including government and personal stations which may have varying degrees of accuracy. Weather forecasts are derived from the NOAA NDFD. Like all things, this site belongs to Jesus Christ... He just trusts us to maintain it. If you have any questions or comments email webmaster@weatherforyou.com

Copyright © 2016, WeatherForYou.com LLC. All rights reserved.